Location: Glencliff
(36.1226°N, 86.7183°W)
Time: 06:02:49
(UTC+00:00)

Cosmos 1151 Rocket - Pass Details

Date: 25 August 2019
Orbit: 591 x 617 km, 82.5° (Epoch: 13 September)

Event Time Altitude Azimuth Distance (km) Brightness Sun altitude
Rises 10:35:35 0° 178° (S) 2,871 6.3 -8.0°
Reaches altitude 10° 10:37:49 10° 175° (S) 1,969 5.5 -7.6°
Maximum altitude 10:42:07 63° 95° (E) 686 3.6 -6.8°
Drops below altitude 10° 10:46:27 10° 14° (NNE) 1,975 6.1 -6.0°
Sets 10:48:41 0° 11° (N) 2,880 6.9 -5.5°
